Regional Weather Roundup
Issued by NWS Midland/Odessa, TX

Skip options and go directly to product.
Home | Oldest Version | Previous Version | Current Version | All | Text Only | Save Text | Print | Product List | Glossary Off

Skip product version selection by date and time.   

677
ASUS44 KMAF 030210
RWRMAF
MIDLAND AREA WEATHER ROUNDUP
NATIONAL WEATHER SERVICE MIDLAND TX
900 PM CDT WED SEP 02 2015

...IN SOUTHWEST TEXAS AND SOUTHEAST NEW MEXICO...

CITY           SKY/WX    TMP DP  RH WIND       PRES   REMARKS
ALPINE         CLEAR     81  49  32 SE12      30.12R
ANDREWS        FAIR      81  55  40 S7        30.00R
ARTESIA        MOCLDY    86  50  28 SE14      29.99R
BIG SPRING     PTCLDY    82  51  35 E7        29.99R
CARLSBAD       MOCLDY    88  50  27 SE14      29.96R
DRYDEN           N/A     86  59  39 VRB3      29.94R
FORT STOCKTON  PTCLDY    84  53  34 SE10      29.98R
GUAD PASS      PTCLDY    79  46  31 E20       30.14S
HOBBS          MOCLDY    81  52  36 SE8       30.03R
MARFA          CLEAR     77  46  33 E10       30.10R
MIDLAND AIRPK  MOCLDY    88  52  29 SE8       29.99R
MIDLAND INTL   MOCLDY    85  54  34 SE7       29.98R
ODESSA         MOCLDY    86  53  32 SE8       29.99S
PECOS          PTCLDY    87  51  28 E13       29.93R
PRESIDIO       NOT AVBL
SEMINOLE       MOCLDY    81  50  33 S3        30.01R
SNYDER         CLEAR     83  55  37 SE7       29.98R
WINK           CLOUDY    87  54  32 SE10      29.95R
$$
...OTHER STATIONS IN TEXAS...

CITY           SKY/WX    TMP DP  RH WIND       PRES   REMARKS
ABILENE        CLEAR     84  57  39 SE9       29.97R
AMARILLO       PTCLDY    82  54  37 S14       30.00R
AUSTIN         PTCLDY    81  67  62 E7        29.94R
BROWNSVILLE    CLEAR     80  76  87 E6        29.89R
CORPUS CHRISTI PTCLDY    83  74  74 E10       29.91R
DALLAS FTW     PTCLDY    88  63  43 SE10      29.95R
DEL RIO        CLEAR     87  62  43 E5        29.88R
EL PASO        CLOUDY    90  46  21 W21G28    29.97R
HOUSTON INT    MOCLDY    75  74  96 NE3       29.94F
LUBBOCK        MOCLDY    83  53  35 S8        30.00R
SAN ANGELO     PTCLDY    82  54  37 E6        29.94R
SAN ANTONIO    PTCLDY    86  65  49 E10       29.94R
WACO           CLEAR     84  64  50 SE8       29.95R
WICHITA FALLS  NOT AVBL
$$
...OTHER LOCATIONS IN NEW MEXICO...

CITY           SKY/WX    TMP DP  RH WIND       PRES   REMARKS
ALAMAGORDO     MOCLDY    86  45  23 W7        30.01R
ALBUQUERQUE    CLOUDY    79  45  29 NE9       30.15R
CANNON AFB     PTCLDY    81  49  32 S13       30.03R
CLOVIS         PTCLDY    81  48  32 S13       30.04R
HOLLOMAN AFB   MOCLDY    87  45  23 N12       29.99R
ROSWELL        MOCLDY    86  47  25 S10       29.98R
RUIDOSO        PTCLDY    70  43  37 SE9       30.25R
SANTA FE       CLOUDY    71  45  39 W17G26    30.19R
TRUTH OR CONSE LGT RAIN  72  59  63 W12       30.14R
TUCUMCARI      PTCLDY    82  50  32 SW10      29.95R
$$

USA.gov is the U.S. government's official web portal to all federal, state and local government web resources and services.